Weather History for Ogden Hill AFB, UT

Change the Weather History Date:

Thursday, January 23, 2014

  Actual Average Record
Temperature  
Mean Temperature 26 °F -  
Max Temperature 39 °F 34 °F 50 °F (2003)
Min Temperature 14 °F 22 °F 3 °F (2013)
Degree Days  
Heating Degree Days 38    
Moisture  
Dew Point 13 °F    
Average Humidity 58    
Maximum Humidity 93    
Minimum Humidity 22    
Precipitation  
Precipitation 0.00 in - - ()
Snow  
Snow 0.00 in - - ()
Snow Depth 7.00 in    
Sea Level Pressure  
Sea Level Pressure 30.32 in    
Wind  
Wind Speed 8 mph (ESE)    
Max Wind Speed 29 mph    
Max Gust Speed 43 mph    
Visibility 8 miles    
Events Fog    
Averages and records for this station are not official NWS values.
T = Trace of Precipitation, MM = Missing Value Source: NWS Daily Summary

Daily Weather History Graph

Daily Weather History Graph

Search for Another Location

Airport:

Trip Planner

Search our weather history database for the weather conditions in past years. The results will help you decide how hot, cold, wet, or windy it might be!

Date:

Astronomy

Jan. 23, 2014 Rise Set
Actual Time 7:46 AM MST 5:33 PM MST
Civil Twilight 7:16 AM MST 6:03 PM MST
Nautical Twilight 6:43 AM MST 6:36 PM MST
Astronomical Twilight 6:10 AM MST 7:09 PM MST
Moon 12:12 AM MST (1/23) 11:19 AM MST (1/23)
Length of Visible Light 10h 46m
Length of Day
9h 47m
Waning Gibbous, 54% of the Moon is Illuminated
Jan 23
Waning Gibbous
Jan 23
Last Quarter
Jan 30
New
Feb 6
First Quarter
Feb 14
Full

Hourly Weather History & Observations

Time (MST) Temp. Windchill Dew Point Humidity Pressure Visibility Wind Dir Wind Speed Gust Speed Precip Events Conditions
12:18 AM 21.2 °F 14.9 °F 14.0 °F 74% 30.14 in 9.0 mi Variable 4.6 mph - N/A   Clear
12:48 AM 19.4 °F 10.4 °F 12.2 °F 74% 30.15 in 1.0 mi SSE 6.9 mph - N/A   Haze
12:53 AM 15.8 °F 7.2 °F 10.4 °F 79% 30.16 in 0.2 mi South 5.8 mph - N/A   Haze
12:58 AM 14.2 °F - 10.0 °F 84% 30.26 in 0.2 mi Calm Calm - N/A Fog Light Freezing Fog
1:08 AM 15.8 °F - 14.0 °F 93% 30.16 in 1.5 mi NW 2.3 mph - N/A   Partly Cloudy
1:13 AM 17.6 °F 9.3 °F 15.8 °F 93% 30.16 in 4.0 mi NNW 5.8 mph - N/A   Partly Cloudy
1:18 AM 19.4 °F - 15.8 °F 86% 30.16 in 6.0 mi Variable 1.2 mph - N/A   Partly Cloudy
1:58 AM 18.3 °F - 15.1 °F 87% 30.23 in 6.0 mi NNE 2.3 mph - N/A   Clear
2:38 AM 17.6 °F 10.7 °F 14.0 °F 86% 30.18 in 5.0 mi Variable 4.6 mph - N/A   Clear
2:43 AM 17.6 °F 7.3 °F 14.0 °F 86% 30.18 in 2.0 mi SSW 8.1 mph - N/A   Clear
2:48 AM 17.6 °F 12.3 °F 14.0 °F 86% 30.18 in 0.8 mi Variable 3.5 mph - N/A   Clear
2:58 AM 19.4 °F - 15.8 °F 86% 30.25 in 2.5 mi Variable 2.3 mph - N/A   Clear
3:03 AM 19.4 °F 14.3 °F 15.8 °F 86% 30.19 in 10.0 mi Variable 3.5 mph - N/A   Clear
3:58 AM 24.4 °F 17.5 °F 16.3 °F 71% 30.27 in 10.0 mi NNW 5.8 mph - N/A   Scattered Clouds
4:34 AM 26.6 °F 15.2 °F 15.8 °F 64% 30.20 in 10.0 mi NNE 13.8 mph 17.3 mph N/A   Partly Cloudy
4:58 AM 32.5 °F 22.3 °F 16.2 °F 51% 30.25 in 10.0 mi East 15.0 mph 24.2 mph N/A   Clear
5:58 AM 29.5 °F 25.9 °F 14.7 °F 54% 30.29 in 10.0 mi Variable 3.5 mph - N/A   Clear
6:58 AM 33.6 °F 20.5 °F 13.6 °F 44% 30.31 in 10.0 mi East 26.5 mph - N/A   Clear
7:58 AM 34.0 °F 20.8 °F 10.6 °F 38% 30.33 in 10.0 mi East 27.6 mph 42.6 mph N/A   Clear
8:58 AM 34.5 °F 21.5 °F 11.1 °F 38% 30.35 in 10.0 mi East 27.6 mph 35.7 mph N/A   Clear
9:40 AM 35.6 °F 27.1 °F 8.6 °F 33% 30.34 in 10.0 mi SSE 12.7 mph 25.3 mph N/A   Clear
9:58 AM 33.6 °F - 8.6 °F 35% 30.42 in 10.0 mi Variable 2.3 mph - N/A   Clear
10:58 AM 37.6 °F 27.7 °F 3.0 °F 24% 30.42 in 10.0 mi SE 18.4 mph 38.0 mph N/A   Clear
11:01 AM 37.4 °F 28.9 °F 5.0 °F 26% 30.35 in 10.0 mi East 13.8 mph 21.9 mph N/A   Clear
11:58 AM 39.0 °F 27.4 °F 2.7 °F 22% 30.37 in 10.0 mi East 28.8 mph 38.0 mph N/A   Clear
12:58 PM 36.7 °F 29.9 °F 12.9 °F 38% 30.44 in 10.0 mi South 9.2 mph 16.1 mph N/A   Clear
1:58 PM 37.4 °F 30.3 °F 11.5 °F 34% 30.43 in 10.0 mi South 10.4 mph - N/A   Clear
2:58 PM 35.4 °F 29.7 °F 20.7 °F 55% 30.43 in 10.0 mi SW 6.9 mph - N/A   Clear
3:58 PM 35.2 °F 31.2 °F 21.9 °F 58% 30.44 in 10.0 mi WSW 4.6 mph - N/A   Clear
4:58 PM 34.7 °F 29.6 °F 21.9 °F 60% 30.41 in 10.0 mi SSW 5.8 mph - N/A   Clear
5:58 PM 29.8 °F - 21.4 °F 71% 30.45 in 10.0 mi West 2.3 mph - N/A   Clear
6:58 PM 30.9 °F 22.8 °F 16.5 °F 55% 30.45 in 10.0 mi East 9.2 mph - N/A   Clear
7:58 PM 31.1 °F 18.9 °F 6.3 °F 35% 30.45 in 10.0 mi East 19.6 mph 24.2 mph N/A   Clear
8:25 PM 32.0 °F 21.2 °F 6.8 °F 35% 30.43 in 10.0 mi SE 16.1 mph - N/A   Clear
8:58 PM 30.6 °F - 10.4 °F 43% 30.49 in 10.0 mi North 2.3 mph - N/A   Clear
9:58 PM 28.4 °F 16.6 °F 6.6 °F 40% 30.52 in 10.0 mi ESE 16.1 mph - N/A   Clear
10:58 PM 26.8 °F 13.7 °F 6.6 °F 42% 30.55 in 10.0 mi ESE 18.4 mph - N/A   Clear
11:58 PM 24.8 °F 11.1 °F 6.6 °F 46% 30.55 in 10.0 mi East 18.4 mph - N/A   Clear